Weather in Studenyye Vyselki

Russia / Lipetsk Oblast     52°42′53″N   39°30′57″E
temp.,
°C
wind,
m/s
gust,
m/s
humid.,
%
clouds,
%
prec.,
mm/h
press.,
hPa
HPBL,
m
9 march, tue
tue900:00−11nw22878 0.0 101021
03:00−12nw339016 0.0 101140
06:00−13nnw359589 0.0 1012117
09:00−11n479395 0.1 1013312
12:00−11nnw468958 0.0 1015419
15:00−10nnw578770 0.0 1016599
18:00−13nw489293 0.0 1018210
21:00−15nw479449 0.0 1020124
10 march, wed
wed1000:00−16nw369554 0.0 1021151
03:00−19nw479427 0.0 1023151
06:00−21nw49940 0.0 1025221
09:00−20nnw58930 0.0 1026283
12:00−18nw46903 0.0 1027374
15:00−16nnw468710 0.0 1028434
18:00−19nnw349359 0.0 1029153
21:00−21nnw349529 0.0 103196
11 march, thu
thu1100:00−22n34940 0.0 103262
03:00−22nnw23920 0.0 103339
06:00−22nw23900 0.0 103343
09:00−19nnw34860 0.0 1034137
12:00−15nnw34810 0.0 1034328
15:00−13nnw238211 0.0 1034420
18:00−16n229127 0.0 103423
21:00−18nnw129314 0.0 103520
12 march, fri
fri1200:00−19nnw11930 0.0 103520
03:00−20sw11930 0.0 103520
06:00−19s11940 0.0 103520
09:00−16s22880 0.0 1035152
12:00−11s34750 0.0 1035448
15:00−9s35730 0.0 1034631
18:00−12sse34870 0.0 103368
21:00−14sse47870 0.0 1033118
13 march, sat
sat1300:00−13sse410860 0.0 1032184
03:00−12s5128132 0.0 1031291
06:00−10s61377100 0.0 1030391
09:00−8s71472100 0.0 1029616
12:00−5ssw81368100 0.0 1028846
15:00−5ssw81379100 0.0 1027921
18:00−5ssw6138091 0.0 1026634
21:00−6ssw5147884 0.0 1025422